Torna al catalogo

CZ-6A DEB

AttivoPO
NORAD 60760·DEBRIS·🇨🇳 China

Lanciato Aug 6, 2024 da Taiyuan Satellite Launch Center

Loading…

Prossimi Passaggi (prossime 24 ore)

TLE

AggiornatoSource: Space-Track

Epoca: Sep 14, 2026, 11:06 UTC

1 60760U 24140EK  26257.46253512  .00001071  00000-0  15026-3 0  9996
2 60760  89.0811 266.2318 0165010 269.2217  89.0091 14.67749030110334

Traccia CZ-6A DEB in tempo reale con AllMySat

Download on the App Store